Regional Weather Roundup
Issued by NWS

Home | Current Version | Previous Version | Graphics & Text | Print | Product List | Glossary On
Versions: 1 2 3 4 5 6 7 8 9 10 11 12 13 14 15 16 17 18 19 20 21 22 23 24 25 26 27 28 29 30 31 32 33 34 35 36 37 38 39 40 41 42 43 44 45 46 47 48 49 50
000
ASUS45 KBOU 020607
RWRCO

WEATHER ROUNDUP FOR COLORADO
NATIONAL WEATHER SERVICE DENVER/BOULDER CO
1200 AM MDT TUE SEP 02 2014

NOTE: "FAIR" INDICATES FEW OR NO CLOUDS BELOW 12000 FEET WITH NO
SIGNIFICANT WEATHER AND/OR OBSTRUCTIONS TO VISIBILITY.

COZ001>005-013-030-031-020700-
...NORTHWEST COLORADO...

CITY           SKY/WX    TMP DP  RH WIND       PRES   REMARKS
CRAIG          CLEAR     47  41  80 CALM      30.19S
HAYDEN         CLEAR     52  36  54 SE7       30.20S
MEEKER         CLEAR     52  37  56 E8        30.20S
MOUNT WERNER   NOT AVBL
STEAMBOAT SPGS CLEAR     48  38  66 CALM      30.23S
WALDEN         CLEAR     46  32  57 S3        30.28S
$$

COZ006>008-011-020700-
...WEST CENTRAL VALLEYS...

CITY           SKY/WX    TMP DP  RH WIND       PRES   REMARKS
GRAND JUNCTION CLEAR     65  38  36 CALM      30.06R
MONTROSE       CLEAR     62  37  39 SE14      30.16S
EAGLE          CLEAR     52  37  58 NE3       30.25R
RIFLE          CLEAR     58  39  49 SE8       30.15R
DELTA          CLEAR     62  38  41 NE7       30.12R
NUCLA          CLEAR     61  34  36 SE9       30.19R
$$

COZ017>023-064>068-020700-
...SOUTHWEST COLORADO...

CITY           SKY/WX    TMP DP  RH WIND       PRES   REMARKS
DURANGO        CLEAR     59  35  40 N7        30.19S
CORTEZ         CLEAR     55  39  54 E6        30.14S
PAGOSA SPRINGS CLEAR     56  32  40 CALM      30.28S
TELLURIDE      CLEAR     54  32  43 SE8       30.39S
WOLF CREEK PAS CLEAR     46  23  39 SW10      30.58S
$$

COZ009-010-012-014-032>034-037-058>063-020700-
...CENTRAL COLORADO...

CITY           SKY/WX    TMP DP  RH WIND       PRES   REMARKS
ASPEN          CLEAR     49  34  56 S7        30.30R
BUENA VISTA    CLEAR     50  31  47 W6        30.30S
COPPER MTN     CLEAR     45  28  53 W7        30.56S
BERTHOUD PASS  FAIR      36  36 100 W17G24    30.57F
COTTONWOOD PAS CLEAR     57  21  24 N5        30.41S
GUNNISON       CLEAR     50  34  53 N3        30.32R
KREMMLING      CLEAR     45  32  61 CALM      30.30R
LEADVILLE      CLEAR     39  30  70 CALM      30.42R
MONARCH PASS   CLEAR     45  25  45 W23       30.65F
SALIDA         CLEAR     54  34  45 W6        30.34R
SUNLIGHT       CLEAR     50  32  50 CALM      30.49F
WILKERSON PASS NOT AVBL
$$

COZ069>075-020700-
...SAN LUIS VALLEY/SANGRE DE CRISTO MOUNTAINS...

CITY           SKY/WX    TMP DP  RH WIND       PRES   REMARKS
ALAMOSA        CLEAR     56  32  40 N6        30.25R
LA VETA PASS   NOT AVBL
SAGUACHE       NOT AVBL
$$

COZ035-036-038>040-020700-
...NORTHERN COLORADO FRONT RANGE...

CITY           SKY/WX    TMP DP  RH WIND       PRES   REMARKS
DENVER INTL AP PTCLDY    56  44  64 NE12      30.15R
DMNS CITY PARK   N/A     60  42  52 NE6G16    30.14R
AURORA         PTCLDY    57  44  60 NE10      30.17R
FRONT RANGE AP NOT AVBL
ERIE MUNI ARPT CLEAR     55  46  69 CALM      30.17R
BOULDER MUN AP CLEAR     57  45  62 W5        30.18R
CENTENNIAL     PTCLDY    59  47  64 SW8       30.16R
BROOMFIELD     CLEAR     59  45  58 N13       30.19R
FORT COLLINS   CLEAR     55  45  67 NW8       30.16S
LONGMONT       CLEAR     59  46  63 CALM      30.18R
$$

COZ041-046-047-076>085-087-088-020700-
...PIKES PEAK/PALMER DIVIDE AND SOUTHERN FOOTHILLS...

CITY           SKY/WX    TMP DP  RH WIND       PRES   REMARKS
COLO. SPRINGS  CLEAR     63  45  51 CALM      30.19R
A. F. ACADEMY  CLEAR     51  46  82 N7        30.21R
ELLICOTT       CLEAR     60  49  66 SE10      30.16S
FALCON         CLEAR     58  45  62 W3        30.23S
FORT CARSON    CLEAR     62  46  56 CALM      30.16R
LIMON          PTCLDY    52  45  77 N5        30.12R
MONUMENT HILL  CLEAR     55  43  62 SW6       30.23S
TRINIDAD       CLEAR     66  45  46 NW16      30.11R
$$

COZ042>045-048>051-090-091-020700-
...NORTHEAST COLORADO...

CITY           SKY/WX    TMP DP  RH WIND       PRES   REMARKS
GREELEY ARPT   CLEAR     54  43  66 CALM      30.13R
AKRON          CLEAR     55  45  68 MISG      30.12R
BURLINGTON     CLEAR     60  51  72 S10       30.05S
WRAY             N/A     59  53  79 NE3       30.07R
STERLING       CLEAR     59  50  72 NE7       30.08S
HOLYOKE        PTCLDY    59  54  82 E7        30.08F
FORT MORGAN    CLEAR     55  45  70 NE9       30.11S
$$

COZ086-089-092>099-020700-
...SOUTHEAST COLORADO...

CITY           SKY/WX    TMP DP  RH WIND       PRES   REMARKS
PUEBLO         CLEAR     69  50  50 E8        30.07R
LA JUNTA       CLEAR     68  56  65 E13       30.02S
LAMAR          CLEAR     64  57  78 NE5       30.00R
SPRINGFIELD      N/A     64  61  90 E7        30.02R
$$



USA.gov is the U.S. government's official web portal to all federal, state and local government web resources and services.